Skip to content

GuitarMania

List of Articles
번호 제목 글쓴이 날짜 조회 수
2094 Beautiful Dreamer(토스토) 7 file 까치 2007.08.30 10018
2093 Les Feuilles Mortes (고엽) - Joseph Kosma 20 file 고정석 2007.08.29 8857
2092 Stairway to Heaven, Classical/Unplugged version 기악 독주 7 file 2007.08.28 8371
2091 죄송한! 탕고 안 스까이 바이 로랑디앙 (조율 맞춰 재업)ㅠ 8 file buyho 2007.08.26 7343
2090 알함브라궁전의 추억 12 file 정면 2007.08.24 8592
2089 F. Sor의 인커리지먼트 18 file 바하의꿈 2007.08.24 8786
2088 헨델의 대장간변주?^^ Handel--Blacksmith Variations 19 file 바하의꿈 2007.08.23 10102
2087 망고레의 Contemplacion (깊은 그리움) 24 file 아이모레스 2007.08.22 8800
2086 Falla--ThreeCorneredHat(KimMoonHyung & Chung Sehee) 7 file 바하의꿈 2007.08.21 9161
2085 Yuichi Watanabe - Morning Dew 5 file 2007.08.21 9538
2084 Sleepers, Awake! from Cantata BWV140 9 file April 2007.08.20 7878
2083 텅 빈 놀이터 II by devilous 9 file devilous 2007.08.20 7259
2082 [동영상] Barrios - Una Limosna por el amor de Dios (최후의 트레몰로) 39 file 김상욱 2007.08.17 15349
2081 milonga 6 file 2007.08.15 10064
2080 바흐 // Choral from cantata147 arr.David Russell 31 file 진느 2007.08.14 9044
2079 Tango En Skai 11 file 좁은길로 2007.08.13 10409
2078 sunflower 14 file 한사랑 2007.08.13 8790
2077 maria luisa 6 file sky600 2007.08.12 9983
2076 Adelita 2 file sky600 2007.08.12 6291
2075 Classical Gas/Mason Williams -클래식컬 개스 23 file Jason 2007.08.10 11139
2074 Sor Etude#6 10 file 밀롱가. 2007.08.10 7754
2073 로드리고 // 고풍스런 티엔토 30 file 진느 2007.08.08 8869
2072 알베니즈-야자나무 아래에서 13 file 기타레타 2007.08.08 6793
2071 Partners in Praise / 안신영님 편곡 10 file orpheus15 2007.08.07 7623
2070 Estudio No.12 / F. Sor 13 file 이진성 2007.08.06 10480
2069 Sleeprs, Awake! 눈뜨라부르는소리있어 7 file 좁은길로 2007.08.05 8352
2068 로망스 no.1(이중주)-끌레앙 16 file 체르니 2007.08.04 14152
2067 The old rugged cross by G. Bennard 10 file Jason 2007.08.02 7767
2066 Lamento No.2 / F. Kleynjans 12 file 이진성 2007.08.01 9773
2065 클레이앙스-로망스1번(이중주) 6 file 기타레타 2007.07.30 8565
2064 부탁 김효석 2007.07.29 7742
2063 Fur Elise by L. Van Beethoven 62 file Jason 2007.07.28 11002
2062 사람이 꽃보다 아름다워~~~ 4 야매 2007.07.28 10591
2061 P. Bellinati Baiao de Gude 서울기타콰르텟 4 file sgq 2007.07.27 10272
2060 A. Piazzolla Liebertango 1 file sgq 2007.07.27 10401
2059 A. Piazzolla Oblivion(망각) 3 file sgq 2007.07.27 10566
2058 A. Piazzolla Quattro Stagioni (부에노스아이레스의 사계) 1. Primavera portend (봄) 8 file sgq 2007.07.27 8450
2057 BWV1006a Prelude 7 file 좁은길로 2007.07.27 11265
2056 (이중주) Green Sleeves 20 file niceplace 2007.07.27 10872
2055 Septiembre (Maximo Diego Pujol) 21 file 라일 2007.07.26 10176
2054 Aria no.1 - F. Kleynjans 11 file bradpitt 2007.07.24 8895
2053 유키 구라모토의 Lake Louise(새로운 편곡) 17 file 최병욱 2007.07.23 11377
2052 샤콘느 뒤에뒤부분 7 file 좁은길로 2007.07.23 7893
2051 Fantasia Arabe by Sabicas 22 file Jason 2007.07.22 7831
2050 월량대표아적심(月亮代表我的心) 29 이진성 2007.07.19 12215
2049 Variation on Theme of Mozart - F.Sor 32 file Jason 2007.07.15 8489
2048 Wonderful tonight 43 file - 情 - 2007.07.14 10891
2047 Bach - BWV1007 Prelude & Allemande 16 file 김상욱 2007.07.14 9084
2046 Pierre Bensusan - 아도니스의 정원 12 file 찬찬 2007.07.14 8411
2045 이루마의 Kiss the Rain 6 file 최병욱 2007.07.13 10421
2044 G선상의 아리아 - J.S.BACH 43 file 기타레타 2007.07.13 11082
2043 헨델의 아리아 23 file 아이모레스 2007.07.12 10710
2042 이 곡 제목이 뭔가요? 3 file -_ - 2007.07.12 7646
2041 엔커리지먼트-소르 39 file 기타레타 2007.07.11 9752
2040 Giuliani-- Rossiniana No.1 (글로빌 아트홀 실황연주) 15 file LDH 2007.07.11 8032
2039 핑거스타일- Sun dance (Kotaro Oshio) 7 file 최병욱 2007.07.11 11123
2038 하프시 팟사 완주--! 4 file 좁은길로 2007.07.10 8895
2037 도적의 노래-ibach 연주 16 file 바하의꿈 2007.07.10 8577
2036 대성당2악장 4 file 좁은길로 2007.07.09 7633
2035 이병우 - 달려 18 file 김상욱 2007.07.09 8735
2034 [영상] 엘레지 Elegie (메르츠 Mertz) 3 2007.07.09 9224
2033 brahms-theme and variations 20 file 기타레타 2007.07.09 8727
2032 소르의 마적입니다... 19 file 화가 2007.07.08 7923
2031 종소리 12 file 좁은길로 2007.07.07 8295
2030 이루마의 When the love falls 7 file 최병욱 2007.07.07 9197
2029 대성당1악장 8 file 좁은길로 2007.07.05 7204
2028 Triste Santuario by Vincent Gomez-슬픈 예배당 17 file Jason 2007.07.05 11912
2027 Kleine Romanze- L. Walker 10 file Jason 2007.07.05 7569
2026 L'HYMNE A L'AMOUR / E.PIAF 24 file April 2007.07.04 7700
2025 이노래어떤가요? Pulo do Gato(P.Bellinati) 15 file MSGr 2007.07.01 10301
2024 BWV1006a 프렐류드 3 file 좁은길로 2007.06.29 10695
2023 Agua e Vinho - Egberto Gismonti 18 file limnz 2007.06.29 10514
2022 F. Tarrega,Capricho Arabe 33 file Jason 2007.06.28 10770
2021 Koyunbaba - C. Domeniconi 25 file 진느 2007.06.27 7678
2020 쉘부르의 우산 3 file nice guy 2007.06.27 8911
2019 바흐 샤콘느 10 file 좁은길로 2007.06.26 8786
2018 리브라소나티네 3.Fuoco-롤랑디용 27 file MSGr 2007.06.21 8556
2017 fredric hand의 연습곡 1번 4 file 루하기 2007.06.21 6632
2016 유키구라모토의 Meditation 18 file 최병욱 2007.06.19 11939
2015 뱃노래 - 코스트 12 file fernando 2007.06.19 8953
2014 Romance.3번. 다시 올려요 6 file 우체국가는길 2007.06.17 11701
2013 소르 연습곡 6번 8 file niceplace 2007.06.17 8416
2012 [re] 소르 연습곡 6번-리버브를 넣어보았습니다. 1 file niceplace 2007.06.20 7903
2011 알함브라 다시녹음했습니다~ 14 file 최병욱 2007.06.16 8499
2010 Recuerdos de la Alhambra -F. Tarrega 12 file Jason 2007.06.15 9392
2009 오 솔레미오 4 file 밀롱가. 2007.06.14 8906
2008 Kiss the Rain 이루마 곡 (기타 연주) 44 file 아이모레스 2007.06.12 15660
2007 Romance.3번. 10 file 우체국가는길 2007.06.08 11056
2006 I believe 13 file orpheus15 2007.06.08 8381
2005 전설 11 file 최병욱 2007.06.06 8660
2004 최후의 트레몰로 입니다 ^^ 32 file JoDaC 2007.06.06 9353
2003 최후의 트레몰로 (리버브효과없는겁니다..;;) 4 file JoDaC 2007.06.09 7032
2002 zapateado///rodrigo 13 김은미 2007.06.03 10542
2001 Love Affair 6 2007.06.02 7798
2000 L'Hymne_à_l'Amour(사랑의찬가). 4 더카 2007.06.01 8110
1999 대성당 3악장 10 좁은길로 2007.05.30 9663
1998 저도 알함브라궁전의 추억~ 14 file 최병욱 2007.05.30 9464
1997 Schubert Minuet and Trio,Trans by Tarrega 17 file Jason 2007.05.28 8060
1996 Bach-double des govottes,suiteVI 24 file Jason 2007.05.27 8057
1995 Air De Milonga - Jorge Cardoso 16 file 밀롱가. 2007.05.27 10921
Board Pagination ‹ Prev 1 ... 8 9 10 11 12 13 14 15 16 17 18 19 20 21 22 23 24 25 26 27 ... 38 Next ›
/ 38

나눔글꼴 설치 안내


이 PC에는 나눔글꼴이 설치되어 있지 않습니다.

이 사이트를 나눔글꼴로 보기 위해서는
나눔글꼴을 설치해야 합니다.

설치 취소

Designed by sketchbooks.co.kr / sketchbook5 board skin

Sketchbook5, 스케치북5

Sketchbook5, 스케치북5

Sketchbook5, 스케치북5

Sketchbook5, 스케치북5

Powered by Xpress Engine / Designed by hikaru100

abcXYZ, 세종대왕,1234

abcXYZ, 세종대왕,1234